Starlink 11587

operational
NORAD ID: 63310 Int'l Des: 2025-057 Owner: SPXS Country: US Constellation: starlink
LEOCIRCULAR

关于 Starlink 11587

正在加载描述...

实时位置

正在加载3D地球...

即将过境

高度历史

Altitude vs Time

uPlot chart will show altitude changes over time

两行轨道根数

1 63310U 25057D 25351.28517533 .00215943 00000-0 16439-2 0 9991
2 63310 43.0005 41.5866 0002957 281.8549 78.1987 15.70826237 44219
Epoch: Dec 17, 2025 • Age: 9 hours

当前状态

高度 361.0 km
速度 7.69 km/s
星下点 -25.96°S, 44.06°E
发射日期 Mar 18, 2025
运行时间 0.7 years
类型 internet

技术详情

分类 Payload
质量 960.00 kg
干质量 910.00 kg
总质量 960.00 kg
长度 0.30 m
直径 4.10 m
跨度 29.00 m
形状 Box + pan
制造商 SPXS
平台类型 Starlink V2MD
阶段状态 In Orbit
所有者/国家 SPXS/US

大型星座

Loading constellations...